This is the latest recevied weather packets stored in our database for station/object W6ORV. If no packets are shown the sender has not sent any weather packets the latest 10 day(s).
| Time | Temp. | Humidity | Pressure | Rain* | Wind** | Luminosity | Snow |
|---|---|---|---|---|---|---|---|
| 1778104255 | 26.11° C | 42% | 4302 hPa | 0 mm | - | 698 W/m² | - |
| 1778103953 | 25.56° C | 41% | 4302 hPa | 0 mm | - | 718 W/m² | - |
| 1778103650 | 27.22° C | 41% | 4302.2 hPa | 0 mm | - | 703 W/m² | - |
| 1778103348 | 28.33° C | 39% | 4302.3 hPa | 0 mm | - | 733 W/m² | - |
| 1778103045 | 28.89° C | 37% | 4302 hPa | 0 mm | - | 735 W/m² | - |
| 1778102742 | 28.33° C | 38% | 4302.2 hPa | 0 mm | - | 742 W/m² | - |
| 1778102436 | 28.33° C | 37% | 4302.3 hPa | 0 mm | - | 724 W/m² | - |
| 1778102133 | 28.33° C | 40% | 4302.1 hPa | 0 mm | - | 765 W/m² | - |
| 1778101830 | 28.33° C | 41% | 4302.3 hPa | 0 mm | - | 761 W/m² | - |
| 1778101527 | 27.78° C | 39% | 4302.4 hPa | 0 mm | - | 763 W/m² | - |
| 1778101223 | 27.22° C | 41% | 4302.6 hPa | 0 mm | - | 751 W/m² | - |
| 1778100920 | 27.78° C | 40% | 4302.4 hPa | 0 mm | - | 744 W/m² | - |
| 1778100615 | 26.11° C | 41% | 4302.2 hPa | 0 mm | - | 747 W/m² | - |
| 1778100314 | 26.67° C | 41% | 4302.4 hPa | 0 mm | - | 743 W/m² | - |
| 1778100010 | 27.78° C | 41% | 4302.5 hPa | 0 mm | - | 735 W/m² | - |
| 1778099708 | 25.56° C | 41% | 4302.4 hPa | 0 mm | - | 727 W/m² | - |
| 1778099405 | 26.11° C | 44% | 4302.6 hPa | 0 mm | - | 737 W/m² | - |
| 1778099103 | 26.67° C | 42% | 4302.7 hPa | 0 mm | - | 733 W/m² | - |
| 1778098798 | 27.22° C | 42% | 4302.7 hPa | 0 mm | - | 776 W/m² | - |
| 1778098496 | 26.11° C | 41% | 4302.6 hPa | 0 mm | - | 773 W/m² | - |
| 1778098192 | 26.11° C | 44% | 4302.5 hPa | 0 mm | - | 799 W/m² | - |
| 1778097889 | 26.67° C | 42% | 4302.9 hPa | 0 mm | - | 794 W/m² | - |
| 1778097585 | 25.56° C | 43% | 4302.9 hPa | 0 mm | - | 784 W/m² | - |
| 1778097282 | 24.44° C | 46% | 4302.7 hPa | 0 mm | - | 749 W/m² | - |
| 1778096979 | 25.56° C | 45% | 4302.9 hPa | 0 mm | - | 766 W/m² | - |
* Rain latest hour (hover to see other rain measurements)
** Current wind speed in m/s (hover to see current wind gust speed)